When you browse on this site, cookies collect data to enhance your experience and personalize the content and advertising you see.
Visit our Privacy Policy to learn more. By continuing to use the site, you agree to this use of cookies and data.

Stündliche Wetter Escaldes-Engordany

Heute, 12 August, Mittwoch

Zeit Temperatur Niederschläge Wind Luftdruck Luftfeuchtigkeit
00:00 +16°C° 0 mm 1 m/S 640 mmHg 65%
01:00 +16°C° 0 mm 1 m/S 639 mmHg 65%
02:00 +16°C° 0 mm 2 m/S 639 mmHg 66%
03:00 +16°C° 0 mm 2 m/S 639 mmHg 67%
04:00 +16°C° 0 mm 2 m/S 639 mmHg 63%
05:00 +16°C° 0 mm 2 m/S 639 mmHg 59%
06:00 +17°C° 0 mm 2 m/S 639 mmHg 55%
07:00 +18°C° 0 mm 2 m/S 639 mmHg 52%
08:00 +20°C° 0 mm 3 m/S 640 mmHg 49%
09:00 +21°C° 0 mm 3 m/S 641 mmHg 45%
10:00 +21°C° 0.2 mm 3 m/S 641 mmHg 54%
11:00 +20°C° 0.2 mm 3 m/S 640 mmHg 62%
12:00 +20°C° 0.2 mm 2 m/S 640 mmHg 71%
13:00 +20°C° 1 mm 2 m/S 640 mmHg 69%
14:00 +21°C° 1 mm 2 m/S 640 mmHg 67%
15:00 +21°C° 1 mm 2 m/S 639 mmHg 65%
16:00 +19°C° 1 mm 2 m/S 639 mmHg 71%
17:00 +18°C° 1 mm 2 m/S 639 mmHg 76%
18:00 +18°C° 1 mm 1 m/S 638 mmHg 82%
19:00 +16°C° 0.3 mm 1 m/S 639 mmHg 84%
20:00 +15°C° 0.3 mm 1 m/S 639 mmHg 86%
21:00 +13°C° 0.3 mm 1 m/S 639 mmHg 88%
22:00 +14°C° 0 mm 1 m/S 639 mmHg 87%
23:00 +14°C° 0 mm 1 m/S 639 mmHg 87%

Morgen, 13 August, Donnerstag

Zeit Temperatur Niederschläge Wind Luftdruck Luftfeuchtigkeit
00:00 +14°C° 0 mm 1 m/S 639 mmHg 86%
01:00 +13°C° 0 mm 1 m/S 639 mmHg 85%
02:00 +13°C° 0 mm 1 m/S 639 mmHg 83%
03:00 +13°C° 0 mm 1 m/S 639 mmHg 82%
04:00 +14°C° 0 mm 1 m/S 639 mmHg 82%
05:00 +14°C° 0 mm 1 m/S 639 mmHg 81%
06:00 +14°C° 0 mm 1 m/S 640 mmHg 80%
07:00 +18°C° 0 mm 1 m/S 641 mmHg 70%
08:00 +20°C° 0 mm 1 m/S 641 mmHg 60%
09:00 +21°C° 0 mm 2 m/S 642 mmHg 49%
10:00 +23°C° 0 mm 2 m/S 643 mmHg 46%
11:00 +24°C° 0 mm 2 m/S 643 mmHg 43%
12:00 +25°C° 0 mm 3 m/S 643 mmHg 40%
13:00 +25°C° 0.2 mm 3 m/S 643 mmHg 41%
14:00 +24°C° 0.2 mm 3 m/S 642 mmHg 43%
15:00 +24°C° 0.2 mm 3 m/S 642 mmHg 44%
16:00 +23°C° 0.2 mm 2 m/S 642 mmHg 51%
17:00 +21°C° 0.2 mm 2 m/S 641 mmHg 57%
18:00 +21°C° 0.2 mm 1 m/S 641 mmHg 64%
19:00 +19°C° 0 mm 1 m/S 641 mmHg 68%
20:00 +16°C° 0 mm 1 m/S 640 mmHg 71%
21:00 +15°C° 0 mm 1 m/S 640 mmHg 75%
22:00 +14°C° 0 mm 1 m/S 640 mmHg 76%
23:00 +14°C° 0 mm 1 m/S 640 mmHg 76%

übermorgen, 14 August, Freitag

Zeit Temperatur Niederschläge Wind Luftdruck Luftfeuchtigkeit
00:00 +14°C° 0 mm 1 m/S 640 mmHg 77%
01:00 +14°C° 0 mm 1 m/S 640 mmHg 77%
02:00 +13°C° 0 mm 1 m/S 640 mmHg 78%
03:00 +13°C° 0 mm 1 m/S 640 mmHg 78%
04:00 +14°C° 0 mm 1 m/S 640 mmHg 77%
05:00 +14°C° 0 mm 1 m/S 640 mmHg 77%
06:00 +15°C° 0 mm 1 m/S 640 mmHg 76%
07:00 +18°C° 0 mm 1 m/S 641 mmHg 66%
08:00 +21°C° 0 mm 1 m/S 642 mmHg 55%
09:00 +24°C° 0 mm 1 m/S 643 mmHg 45%
10:00 +25°C° 0 mm 2 m/S 643 mmHg 43%
11:00 +25°C° 0 mm 2 m/S 643 mmHg 41%
12:00 +26°C° 0 mm 2 m/S 643 mmHg 40%
13:00 +26°C° 0.1 mm 2 m/S 643 mmHg 42%
14:00 +25°C° 0.1 mm 2 m/S 642 mmHg 44%
15:00 +25°C° 0.1 mm 2 m/S 642 mmHg 46%
16:00 +24°C° 0.2 mm 2 m/S 641 mmHg 54%
17:00 +23°C° 0.2 mm 1 m/S 641 mmHg 61%
18:00 +21°C° 0.2 mm 1 m/S 640 mmHg 69%
19:00 +20°C° 0.1 mm 1 m/S 640 mmHg 74%
20:00 +18°C° 0.1 mm 1 m/S 639 mmHg 78%
21:00 +15°C° 0.1 mm 1 m/S 639 mmHg 83%
22:00 +15°C° 0 mm 1 m/S 639 mmHg 83%
23:00 +15°C° 0 mm 1 m/S 639 mmHg 84%

15 August, Samstag

Zeit Temperatur Niederschläge Wind Luftdruck Luftfeuchtigkeit
00:00 +15°C° 0 mm 1 m/S 639 mmHg 84%
01:00 +15°C° 0 mm 1 m/S 638 mmHg 83%
02:00 +15°C° 0 mm 1 m/S 638 mmHg 82%
03:00 +15°C° 0 mm 1 m/S 638 mmHg 82%
04:00 +15°C° 0 mm 1 m/S 638 mmHg 79%
05:00 +15°C° 0 mm 1 m/S 638 mmHg 76%
06:00 +16°C° 0 mm 1 m/S 638 mmHg 73%
07:00 +18°C° 0 mm 2 m/S 639 mmHg 62%
08:00 +21°C° 0 mm 2 m/S 639 mmHg 52%
09:00 +25°C° 0 mm 2 m/S 640 mmHg 41%
10:00 +26°C° 0 mm 2 m/S 640 mmHg 39%
11:00 +26°C° 0 mm 3 m/S 640 mmHg 37%
12:00 +27°C° 0 mm 3 m/S 640 mmHg 35%
13:00 +27°C° 0 mm 3 m/S 640 mmHg 38%
14:00 +27°C° 0 mm 4 m/S 639 mmHg 41%
15:00 +26°C° 0 mm 4 m/S 639 mmHg 43%
16:00 +25°C° 0.4 mm 3 m/S 638 mmHg 53%
17:00 +23°C° 0.4 mm 2 m/S 638 mmHg 63%
18:00 +21°C° 0.4 mm 1 m/S 637 mmHg 72%
19:00 +20°C° 0.2 mm 1 m/S 637 mmHg 76%
20:00 +18°C° 0.2 mm 1 m/S 637 mmHg 80%
21:00 +16°C° 0.2 mm 1 m/S 637 mmHg 84%
22:00 +15°C° 0 mm 1 m/S 637 mmHg 85%
23:00 +15°C° 0 mm 1 m/S 637 mmHg 85%

16 August, Sonntag

Zeit Temperatur Niederschläge Wind Luftdruck Luftfeuchtigkeit
00:00 +14°C° 0 mm 0 m/S 637 mmHg 85%
01:00 +13°C° 0 mm 0 m/S 636 mmHg 86%
02:00 +13°C° 0 mm 0 m/S 636 mmHg 86%
03:00 +13°C° 0 mm 0 m/S 636 mmHg 87%
04:00 +13°C° 0 mm 0 m/S 636 mmHg 87%
05:00 +13°C° 0 mm 0 m/S 636 mmHg 87%
06:00 +13°C° 0 mm 0 m/S 637 mmHg 87%
07:00 +16°C° 0 mm 1 m/S 638 mmHg 76%
08:00 +19°C° 0 mm 1 m/S 638 mmHg 66%
09:00 +20°C° 0 mm 2 m/S 639 mmHg 55%
10:00 +20°C° 0 mm 2 m/S 640 mmHg 50%
11:00 +21°C° 0 mm 3 m/S 640 mmHg 46%
12:00 +22°C° 0 mm 3 m/S 640 mmHg 42%
13:00 +22°C° 0 mm 3 m/S 640 mmHg 43%
14:00 +22°C° 0 mm 3 m/S 639 mmHg 44%
15:00 +22°C° 0 mm 3 m/S 639 mmHg 45%
16:00 +20°C° 0 mm 2 m/S 639 mmHg 50%
17:00 +19°C° 0 mm 2 m/S 638 mmHg 56%
18:00 +19°C° 0 mm 1 m/S 638 mmHg 61%
19:00 +18°C° 0 mm 1 m/S 638 mmHg 66%
20:00 +15°C° 0 mm 1 m/S 637 mmHg 71%
21:00 +12°C° 0 mm 0 m/S 637 mmHg 76%
22:00 +13°C° 0 mm 1 m/S 637 mmHg 76%
23:00 +13°C° 0 mm 1 m/S 637 mmHg 77%

17 August, Montag

Zeit Temperatur Niederschläge Wind Luftdruck Luftfeuchtigkeit
00:00 +13°C° 0 mm 1 m/S 637 mmHg 77%
01:00 +12°C° 0 mm 1 m/S 637 mmHg 77%
02:00 +12°C° 0 mm 1 m/S 636 mmHg 78%
03:00 +12°C° 0 mm 1 m/S 636 mmHg 78%
04:00 +13°C° 0 mm 1 m/S 637 mmHg 79%
05:00 +13°C° 0 mm 1 m/S 637 mmHg 80%
06:00 +14°C° 0 mm 1 m/S 637 mmHg 81%
07:00 +16°C° 0 mm 1 m/S 638 mmHg 70%
08:00 +19°C° 0 mm 1 m/S 639 mmHg 59%
09:00 +21°C° 0 mm 2 m/S 639 mmHg 48%
10:00 +21°C° 0 mm 2 m/S 640 mmHg 47%
11:00 +22°C° 0 mm 3 m/S 640 mmHg 46%
12:00 +22°C° 0 mm 3 m/S 640 mmHg 44%
13:00 +21°C° 0.9 mm 3 m/S 639 mmHg 54%
14:00 +20°C° 0.9 mm 2 m/S 639 mmHg 63%
15:00 +19°C° 0.9 mm 2 m/S 638 mmHg 73%
16:00 +19°C° 0.7 mm 1 m/S 638 mmHg 77%
17:00 +18°C° 0.7 mm 1 m/S 638 mmHg 82%
18:00 +16°C° 0.7 mm 1 m/S 638 mmHg 86%
19:00 +15°C° 0.1 mm 1 m/S 638 mmHg 87%
20:00 +14°C° 0.1 mm 1 m/S 638 mmHg 89%
21:00 +13°C° 0.1 mm 1 m/S 638 mmHg 90%
22:00 +13°C° 0 mm 1 m/S 638 mmHg 90%
23:00 +13°C° 0 mm 1 m/S 638 mmHg 91%
Mehr zeigen